Overview Statistics Trail Chart Weather Telemetry Raw packets
 

This is the latest recevied weather packets stored in our database for station/object IU5GBO-13. If no packets are shown the sender has not sent any weather packets the latest 10 day(s).

<< 33 34 35 36 37 38 39 >>
Time Temp. Humidity Pressure Rain* Wind** Luminosity Snow
1777563973 22.78° C 23% 1019.1 hPa - - - -
1777563373 22.78° C 24% 1019.1 hPa - - - -
1777562773 23.33° C 24% 1019 hPa - - - -
1777562174 23.33° C 24% 1019 hPa - - - -
1777561573 23.33° C 24% 1019 hPa - - - -
1777560973 23.89° C 24% 1019 hPa - - - -
1777560373 23.89° C 24% 1019 hPa - - - -
1777559773 23.89° C 25% 1019.1 hPa - - - -
1777559173 23.89° C 24% 1019.2 hPa - - - -
1777558573 23.89° C 25% 1019.3 hPa - - - -
1777557973 23.89° C 25% 1019.2 hPa - - - -
1777557373 23.89° C 27% 1019.1 hPa - - - -
1777556773 23.89° C 26% 1019.2 hPa - - - -
1777556174 24.44° C 25% 1019.3 hPa - - - -
1777555573 23.89° C 26% 1019.5 hPa - - - -
1777554973 23.33° C 27% 1019.7 hPa - - - -
1777554373 23.89° C 27% 1019.7 hPa - - - -
1777553773 23.89° C 27% 1019.8 hPa - - - -
1777553173 23.89° C 27% 1019.9 hPa - - - -
1777552573 23.89° C 27% 1019.9 hPa - - - -
1777551973 23.89° C 27% 1020 hPa - - - -
1777551373 23.33° C 28% 1020.1 hPa - - - -
1777550773 23.89° C 29% 1020 hPa - - - -
1777550173 23.89° C 29% 1020.2 hPa - - - -
1777549573 23.33° C 30% 1020.1 hPa - - - -

* Rain since midnight (hover to see other rain measurements)
** Current wind speed in m/s (hover to see current wind gust speed)